Location: Newark
(60.6561°N, 46.5772°E)
Time: 23:01:40
(UTC+00:00)

Transit 2A - All Passes

Search period start: 16 October 2019 00:00
Search period end: 26 October 2019 00:00
Orbit: 600 x 959 km, 66.7° (Epoch: 16 October)

Date Brightness Start Highest point End Pass type
(mag) Time Alt. Az. Time Alt. Az. Time Alt. Az.
16 Oct - 01:05:23 10° NW 01:09:52 56° SW 01:14:07 10° SSE visible
16 Oct - 02:49:47 10° W 02:52:03 14° WSW 02:54:17 10° SW visible
16 Oct - 15:58:19 10° ESE 15:59:33 11° ESE 16:00:46 10° E night (unlit)
16 Oct - 17:36:47 10° SSW 17:41:40 41° SE 17:46:09 10° ENE night (unlit)
16 Oct - 19:19:37 10° WSW 19:24:43 70° NNW 19:29:22 10° NE night (unlit)
16 Oct - 21:03:49 10° WNW 21:08:27 41° N 21:12:45 10° ENE visible
16 Oct - 22:47:49 10° WNW 22:52:23 47° NNE 22:56:40 10° E visible
17 Oct - 00:31:13 10° NW 00:35:47 72° SW 00:40:07 10° SE visible
17 Oct - 02:15:07 10° WNW 02:18:12 19° WSW 02:21:13 10° SSW visible
17 Oct - 17:03:03 10° S 17:07:40 32° ESE 17:11:56 10° ENE night (unlit)
17 Oct - 18:45:24 10° SW 18:50:33 83° NW 18:55:15 10° NE night (unlit)
17 Oct - 20:29:29 10° W 20:34:11 43° NNW 20:38:32 10° ENE night (unlit)
17 Oct - 22:13:36 10° WNW 22:18:08 43° NNE 22:22:22 10° E visible
17 Oct - 23:57:05 10° NW 00:01:41 89° SSW 00:06:03 10° SE visible
18 Oct - 01:40:42 10° WNW 01:44:18 24° WSW 01:47:49 10° S visible
18 Oct - 16:29:27 10° S 16:33:42 25° ESE 16:37:39 10° ENE visible
18 Oct - 18:11:15 10° SW 18:16:25 83° SE 18:21:06 10° NE night (unlit)
18 Oct - 19:55:09 10° W 19:59:55 46° NNW 20:04:20 10° ENE night (unlit)
18 Oct - 21:39:21 10° WNW 21:43:51 41° N 21:48:04 10° E night (unlit)
18 Oct - 23:22:55 10° NW 23:27:32 76° NNE 23:31:54 10° ESE visible
19 Oct - 01:06:23 10° WNW 01:10:22 31° WSW 01:14:12 10° S visible
19 Oct - 15:56:04 10° SSE 15:59:46 20° ESE 16:03:15 10° ENE visible
19 Oct - 17:37:11 10° SW 17:42:19 68° SE 17:46:58 10° NE visible
19 Oct - 19:20:49 10° W 19:25:41 51° NNW 19:30:10 10° NE night (unlit)
19 Oct - 21:05:04 10° WNW 21:09:34 39° N 21:13:48 10° ENE night (unlit)
19 Oct - 22:48:45 10° NW 22:53:22 64° NNE 22:57:42 10° ESE visible
20 Oct - 00:32:08 10° WNW 00:36:23 41° SW 00:40:27 10° SSE visible
20 Oct - 15:22:58 10° SE 15:25:53 15° ESE 15:28:40 10° ENE visible
20 Oct - 17:03:12 10° SSW 17:08:14 54° SE 17:12:49 10° NE visible
20 Oct - 18:46:30 10° WSW 18:51:27 58° NNW 18:56:00 10° NE visible
20 Oct - 20:30:46 10° WNW 20:35:18 39° N 20:39:31 10° ENE night (unlit)
20 Oct - 22:14:35 10° NW 22:19:09 55° NNE 22:23:28 10° ESE night (unlit)
20 Oct - 23:57:57 10° NW 00:02:21 53° SW 00:06:35 10° SSE visible
21 Oct - 01:42:30 10° W 01:44:31 13° WSW 01:46:29 10° SW visible
21 Oct - 14:50:28 10° SE 14:52:02 11° ESE 14:53:33 10° E visible
21 Oct - 16:29:20 10° SSW 16:34:11 43° SE 16:38:39 10° ENE visible
21 Oct - 18:12:14 10° WSW 18:17:15 68° NNW 18:21:51 10° NE visible
21 Oct - 19:56:27 10° WNW 20:01:01 40° N 20:05:16 10° ENE night (unlit)
21 Oct - 21:40:24 10° WNW 21:44:55 48° NNE 21:49:12 10° E night (unlit)
21 Oct - 23:23:47 10° NW 23:28:18 68° SW 23:32:36 10° SE night (unlit)
22 Oct - 01:07:45 10° WNW 01:10:40 17° WSW 01:13:31 10° SSW night (unlit)
22 Oct - 15:55:33 10° S 16:00:11 34° SE 16:04:26 10° ENE visible
22 Oct - 17:38:01 10° WSW 17:43:05 80° NW 17:47:43 10° NE visible
22 Oct - 19:22:07 10° W 19:26:44 42° N 19:31:02 10° ENE visible
22 Oct - 21:06:11 10° WNW 21:10:40 44° NNE 21:14:54 10° E night (unlit)
22 Oct - 22:49:37 10° NW 22:54:11 85° SW 22:58:33 10° SE night (unlit)
23 Oct - 00:33:17 10° WNW 00:36:46 23° WSW 00:40:11 10° S night (unlit)
23 Oct - 15:21:57 10° S 15:26:12 26° ESE 15:30:09 10° ENE visible
23 Oct - 17:03:51 10° SW 17:08:57 86° SE 17:13:36 10° NE visible
23 Oct - 18:47:46 10° W 18:52:28 45° NNW 18:56:50 10° ENE visible
23 Oct - 20:31:56 10° WNW 20:36:24 41° N 20:40:36 10° E night (unlit)
23 Oct - 22:15:28 10° NW 22:20:03 79° NE 22:24:25 10° ESE night (unlit)
23 Oct - 23:58:57 10° WNW 00:02:50 30° WSW 00:06:36 10° S night (unlit)
24 Oct - 14:48:31 10° SSE 14:52:16 21° ESE 14:55:47 10° ENE visible
24 Oct - 16:29:46 10° SW 16:34:50 70° SE 16:39:28 10° NE visible
24 Oct - 18:13:26 10° W 18:18:14 50° NNW 18:22:39 10° NE visible
24 Oct - 19:57:40 10° WNW 20:02:08 39° N 20:06:19 10° ENE visible
24 Oct - 21:41:19 10° NW 21:45:53 66° NNE 21:50:13 10° ESE night (unlit)
24 Oct - 23:24:42 10° WNW 23:28:51 39° SW 23:32:54 10° SSE night (unlit)
25 Oct - 14:15:21 10° SSE 14:18:22 16° ESE 14:21:14 10° ENE visible
25 Oct - 15:55:46 10° SSW 16:00:45 56° SE 16:05:19 10° NE visible
25 Oct - 17:39:08 10° WSW 17:44:00 56° NNW 17:48:29 10° NE visible
25 Oct - 19:23:23 10° WNW 19:27:51 39° N 19:32:01 10° ENE visible
25 Oct - 21:07:09 10° NW 21:11:41 56° NNE 21:15:59 10° ESE night (unlit)
25 Oct - 22:50:30 10° WNW 22:54:51 50° SW 22:59:02 10° SSE night (unlit)
